Weather History for Stuttgart Echterdingen, Germany

Change the Weather History Date:

Tuesday, June 11, 2013

  Actual Average Record
Temperature  
Mean Temperature 59 °F -  
Max Temperature 64 °F 72 °F 86 °F (2003)
Min Temperature 54 °F 52 °F 48 °F (2001)
Degree Days  
Heating Degree Days 6    
Growing Degree Days 9 (Base 50)    
Moisture  
Dew Point 53 °F    
Average Humidity 80    
Maximum Humidity 94    
Minimum Humidity 58    
Precipitation  
Precipitation 0.12 in - - ()
Sea Level Pressure  
Sea Level Pressure 30.04 in    
Wind  
Wind Speed 5 mph ()    
Max Wind Speed 10 mph    
Max Gust Speed -    
Visibility 5.4 miles    
Events Rain    
Averages and records for this station are not official NWS values.
T = Trace of Precipitation, MM = Missing Value Source: Averaged Metar Reports

Daily Weather History Graph

Daily Weather History Graph

Search for Another Location

Airport:

Trip Planner

Search our weather history database for the weather conditions in past years. The results will help you decide how hot, cold, wet, or windy it might be!

Date:

Astronomy

Jun. 11, 2013 Rise Set
Actual Time 5:20 AM CEST 9:25 PM CEST
Civil Twilight 4:38 AM CEST 10:07 PM CEST
Nautical Twilight 3:39 AM CEST 11:06 PM CEST
Astronomical Twilight 1:48 AM CEST 1:00 AM CEST
Moon 7:58 AM CEST (6/11) 11:06 PM CEST (6/11)
Length of Visible Light 17h 29m
Length of Day
16h 05m
Waxing Crescent, 7% of the Moon is Illuminated
Jun 11
Waxing Crescent
Jun 16
First Quarter
Jun 23
Full
Jun 30
Last Quarter
Jul 8
New

Hourly Weather History & Observations

Time (CEST) Temp. Dew Point Humidity Pressure Visibility Wind Dir Wind Speed Gust Speed Precip Events Conditions
12:00 AM 57 °F 54 °F 87% 29.96 in 37 mi WNW 8.9 mph - - Rain Light Rain Showers
12:20 AM 57.2 °F 53.6 °F 88% 29.95 in 3.7 mi WNW 10.4 mph - N/A   Mostly Cloudy
12:50 AM 57.2 °F 53.6 °F 88% 29.98 in 3.7 mi NW 8.1 mph - N/A   Mostly Cloudy
1:00 AM 56 °F 54 °F 90% 29.97 in 4 mi WNW 8.9 mph - -   Mist
1:20 AM 57.2 °F 53.6 °F 88% 29.98 in 3.7 mi WNW 8.1 mph - N/A   Mostly Cloudy
1:50 AM 57.2 °F 53.6 °F 88% 29.98 in 3.7 mi WNW 8.1 mph - N/A   Mostly Cloudy
2:00 AM 56 °F 53 °F 88% 29.99 in 4 mi WNW 6.7 mph - -   Mist
2:20 AM 55.4 °F 53.6 °F 94% 29.98 in 3.7 mi WNW 9.2 mph - N/A   Mostly Cloudy
2:50 AM 55.4 °F 53.6 °F 94% 29.98 in 3.7 mi NW 6.9 mph - N/A   Mostly Cloudy
3:00 AM 56 °F 53 °F 86% 29.99 in 4 mi WNW 6.7 mph - -   Mist
3:20 AM 55.4 °F 53.6 °F 94% 29.98 in 3.7 mi NW 4.6 mph - N/A   Mostly Cloudy
3:50 AM 55.4 °F 51.8 °F 88% 29.98 in 3.7 mi WNW 5.8 mph - N/A   Mostly Cloudy
4:00 AM 55 °F 52 °F 88% 29.99 in 4 mi WNW 4.5 mph - -   Mist
4:20 AM 55.4 °F 51.8 °F 88% 29.98 in 3.7 mi WNW 2.3 mph - N/A   Mostly Cloudy
4:50 AM 55.4 °F 51.8 °F 88% 29.98 in - WNW 3.5 mph - N/A   Mostly Cloudy
5:20 AM 55.4 °F 51.8 °F 88% 30.01 in 2.2 mi Variable 2.3 mph - N/A   Mostly Cloudy
5:50 AM 55.4 °F 51.8 °F 88% 30.01 in 1.7 mi Calm Calm - N/A   Mostly Cloudy
6:00 AM 55 °F 52 °F 87% 30.01 in 2 mi Calm Calm - -   Mist
6:20 AM 55.4 °F 51.8 °F 88% 30.01 in 2.2 mi NW 4.6 mph - N/A   Mostly Cloudy
6:50 AM 55.4 °F 51.8 °F 88% 30.01 in 2.2 mi WNW 2.3 mph - N/A   Mostly Cloudy
7:00 AM 55 °F 52 °F 86% 30.02 in 2 mi WNW 2.2 mph - -   Mist
7:20 AM 55.4 °F 51.8 °F 88% 30.01 in 2.5 mi NNW 3.5 mph - N/A   Mostly Cloudy
7:50 AM 55.4 °F 51.8 °F 88% 30.04 in 3.1 mi NW 3.5 mph - N/A   Mostly Cloudy
8:00 AM 56 °F 52 °F 82% 30.04 in 3 mi NW 2.2 mph - -   Mist
8:20 AM 57.2 °F 51.8 °F 82% 30.04 in 3.7 mi NNW 4.6 mph - N/A   Mostly Cloudy
8:50 AM 55.4 °F 51.8 °F 88% 30.06 in 3.7 mi NNW 5.8 mph - N/A   Mostly Cloudy
9:00 AM 56 °F 52 °F 82% 30.05 in 4 mi NNW 4.5 mph - -   Mist
9:20 AM 57.2 °F 53.6 °F 88% 30.06 in 3.1 mi ESE 1.2 mph - N/A Rain Light Rain Showers
9:50 AM 59.0 °F 53.6 °F 82% 30.06 in 3.1 mi ENE 2.3 mph - N/A   Mostly Cloudy
10:00 AM 59 °F 54 °F 78% 30.04 in 3 mi ENE 2.2 mph - - Rain Light Rain Showers
10:20 AM 60.8 °F 53.6 °F 77% 30.06 in 3.7 mi Variable 2.3 mph - N/A   Mostly Cloudy
10:50 AM 60.8 °F 51.8 °F 72% 30.06 in 5.6 mi Variable 2.3 mph - N/A   Mostly Cloudy
11:20 AM 60.8 °F 53.6 °F 77% 30.06 in 5.0 mi North 4.6 mph - N/A   Mostly Cloudy
11:50 AM 59.0 °F 53.6 °F 82% 30.06 in 1.6 mi NNW 6.9 mph - N/A Rain Rain Showers
12:00 PM 59 °F 54 °F 78% 30.06 in 2 mi NNW 6.7 mph - - Rain Heavy Rain Showers
12:20 PM 59.0 °F 55.4 °F 88% 30.06 in - NW 4.6 mph - N/A Rain Rain Showers
12:50 PM 60.8 °F 55.4 °F 82% 30.06 in 3.7 mi WNW 3.5 mph - N/A Rain Light Rain Showers
1:00 PM 60 °F 55 °F 78% 30.06 in 4 mi West 4.5 mph - - Rain Light Rain Showers
1:20 PM 60.8 °F 53.6 °F 77% 30.06 in 5.6 mi WNW 4.6 mph - N/A   Mostly Cloudy
1:50 PM 62.6 °F 55.4 °F 77% 30.06 in 5.6 mi NW 4.6 mph - N/A   Mostly Cloudy
2:00 PM 62 °F 55 °F 71% 30.06 in 6 mi NW 4.5 mph - - Rain Light Rain Showers
2:20 PM 62.6 °F 55.4 °F 77% 30.06 in 6.2 mi Variable 2.3 mph - N/A   Mostly Cloudy
2:50 PM 62.6 °F 55.4 °F 77% 30.06 in 6.2 mi West 2.3 mph - N/A   Mostly Cloudy
3:00 PM 63 °F 55 °F 69% 30.06 in 9 mi WSW 2.2 mph - - Rain Light Rain Showers
3:20 PM 64.4 °F 53.6 °F 68% 30.06 in 6.2 mi SE 1.2 mph - N/A   Mostly Cloudy
3:50 PM 64.4 °F 53.6 °F 68% 30.06 in 6.2 mi SW 1.2 mph - N/A   Mostly Cloudy
4:00 PM 64 °F 53 °F 58% 30.05 in 12 mi SSW 2.2 mph - - Rain Light Rain Showers
4:20 PM 64.4 °F 57.2 °F 77% 30.06 in 6.2 mi South 3.5 mph - N/A   Mostly Cloudy
4:50 PM 64.4 °F 55.4 °F 73% 30.06 in 6.2 mi SSE 4.6 mph - N/A   Mostly Cloudy
5:20 PM 64.4 °F 55.4 °F 73% 30.06 in 6.2 mi SSE 5.8 mph - N/A   Mostly Cloudy
5:50 PM 64.4 °F 55.4 °F 73% 30.06 in 6.2 mi ESE 4.6 mph - N/A   Mostly Cloudy
6:00 PM 64 °F 56 °F 67% 30.04 in 16 mi East 4.5 mph - -   Mostly Cloudy
6:20 PM 64.4 °F 55.4 °F 73% 30.06 in 6.2 mi SE 3.5 mph - N/A   Scattered Clouds
6:50 PM 62.6 °F 53.6 °F 72% 30.06 in 6.2 mi South 3.5 mph - N/A   Scattered Clouds
7:00 PM 64 °F 54 °F 63% 30.04 in 16 mi South 2.2 mph - -   Partly Cloudy
7:20 PM 64.4 °F 55.4 °F 73% 30.06 in 6.2 mi South 2.3 mph - N/A   Scattered Clouds
7:50 PM 64.4 °F 53.6 °F 68% 30.06 in - South 3.5 mph - N/A   Clear
8:00 PM 64 °F 54 °F 62% 30.05 in 19 mi South 2.2 mph - -   Partly Cloudy
8:20 PM 64.4 °F 55.4 °F 73% 30.06 in - Variable 2.3 mph - N/A   Clear
8:50 PM 62.6 °F 53.6 °F 72% 30.09 in - SW 2.3 mph - N/A   Clear
9:00 PM 64 °F 54 °F 62% 30.06 in 19 mi SW 2.2 mph - -   Clear
9:20 PM 60.8 °F 53.6 °F 77% 30.09 in - South 3.5 mph - N/A   Clear
9:50 PM 59.0 °F 51.8 °F 77% 30.09 in - Variable 2.3 mph - N/A   Clear
10:00 PM 58 °F 51 °F 72% 30.09 in 12 mi SW 2.2 mph - -   Clear
10:20 PM 57.2 °F 51.8 °F 82% 30.09 in - West 3.5 mph - N/A   Clear
10:50 PM 57.2 °F 51.8 °F 82% 30.12 in - West 4.6 mph - N/A   Clear
11:20 PM 55.4 °F 51.8 °F 88% 30.12 in - SW 3.5 mph - N/A   Clear
11:50 PM 55.4 °F 51.8 °F 88% 30.12 in - SSW 2.3 mph - N/A   Clear